Creek Data

    Home     View Charts     View Raw Data     Messages

ID Distance Battery Voltage Battery Current Internal Temp Internal Humidity External Temp Solar Input rssi snr Time Stamp Record
68143 14.7 3.73 0 74 53 69 5.1 -66 8 03/06/2026 05:00 PM 51006
68142 14.7 3.73 0 75 52 69 5.1 -68 8 03/06/2026 04:45 PM 51005
68141 14.7 3.73 0 75 52 69 5.1 -66 8 03/06/2026 04:30 PM 51004
68140 14.7 3.73 0 77 51 69 5.1 -67 7 03/06/2026 04:15 PM 51003
68139 14.7 3.73 0 77 50 69 5.1 -66 8 03/06/2026 04:00 PM 51002
68138 14.8 3.73 0 77 50 69 5.1 -67 7 03/06/2026 03:30 PM 51000
68137 14.8 3.73 0 78 49 69 5.1 -67 8 03/06/2026 03:15 PM 50999
68136 14.8 3.98 0 78 49 69 5.1 -68 7 03/06/2026 03:00 PM 50998
68135 14.7 3.73 0 78 48 69 5.1 -66 7 03/06/2026 02:45 PM 50997
68134 14.8 3.73 0 78 48 69 5.1 -67 8 03/06/2026 02:30 PM 50996
68133 14.8 3.73 0 77 48 68 5.1 -66 8 03/06/2026 02:15 PM 50995
68132 14.8 3.73 0 76 48 68 5.1 -66 8 03/06/2026 02:00 PM 50994
68131 14.8 3.99 0 76 48 68 5.1 -67 7 03/06/2026 01:45 PM 50993
68130 14.7 3.73 0 75 47 67 5.1 -67 8 03/06/2026 01:30 PM 50992
68129 14.8 3.73 0 75 46 67 5.1 -66 8 03/06/2026 01:15 PM 50991
68128 14.8 3.79 0 74 46 67 5.1 -66 7 03/06/2026 01:00 PM 50990
68127 14.8 3.76 0 73 47 67 5.1 -66 8 03/06/2026 12:45 PM 50989
68126 14.7 3.72 0 71 47 66 5.1 -66 7 03/06/2026 12:30 PM 50988
68125 14.7 3.72 0 70 47 64 5.1 -67 8 03/06/2026 12:15 PM 50987
68124 14.8 3.72 0 69 47 64 5.1 -67 8 03/06/2026 12:00 PM 50986
68123 14.7 4.02 0 66 48 63 5.1 -68 8 03/06/2026 11:45 AM 50985
68122 14.7 3.72 0 64 49 61 5.1 -67 8 03/06/2026 11:30 AM 50984
68121 14.7 3.77 0 63 49 60 5.1 -67 7 03/06/2026 11:15 AM 50983
68120 14.7 3.72 0 63 48 60 5.1 -66 8 03/06/2026 11:00 AM 50982
68119 14.8 3.72 0 63 48 61 5.1 -67 7 03/06/2026 10:45 AM 50981